date,time,SUV Intensity [MED/Hr],UV Index,Daily total [MED],Since Last [MED]
03/04/2022,00:06:28,0.000,0.0,0.0,0.0
03/04/2022,00:07:28,0.000,0.0,0.0,0.0
03/04/2022,00:08:28,0.000,0.0,0.0,0.0
03/04/2022,00:09:28,-0.001,0.0,0.0,0.0
03/04/2022,00:10:28,0.000,0.0,0.0,0.0
03/04/2022,00:11:28,0.000,0.0,0.0,0.0
03/04/2022,00:12:28,0.000,0.0,0.0,0.0
03/04/2022,00:13:28,0.000,0.0,0.0,0.0
03/04/2022,00:14:28,0.000,0.0,0.0,0.0
03/04/2022,00:15:28,0.001,0.0,0.0,0.0
03/04/2022,00:16:29,0.000,0.0,0.0,0.0
03/04/2022,00:17:28,0.000,0.0,0.0,0.0
03/04/2022,00:18:36,0.000,0.0,0.0,0.0
03/04/2022,00:19:28,0.000,0.0,0.0,0.0
03/04/2022,00:20:28,0.000,0.0,0.0,0.0
03/04/2022,00:21:28,0.001,0.0,0.0,0.0
03/04/2022,00:22:28,0.000,0.0,0.0,0.0
03/04/2022,00:23:28,-0.001,0.0,0.0,0.0
03/04/2022,00:24:28,-0.000,0.0,0.0,0.0
03/04/2022,00:25:28,0.001,0.0,0.0,0.0
03/04/2022,00:26:28,0.000,0.0,0.0,0.0
03/04/2022,00:27:28,0.000,0.0,0.0,0.0
03/04/2022,00:28:29,0.000,0.0,0.0,0.0
03/04/2022,00:29:36,0.000,0.0,0.0,0.0
03/04/2022,00:31:29,0.000,0.0,0.0,0.0
03/04/2022,00:32:28,0.000,0.0,0.0,0.0
03/04/2022,00:33:28,0.000,0.0,0.0,0.0
03/04/2022,00:34:28,0.001,0.0,0.0,0.0
03/04/2022,00:35:28,0.000,0.0,0.0,0.0
03/04/2022,00:36:28,0.001,0.0,0.0,0.0
03/04/2022,00:37:29,-0.000,0.0,0.0,0.0
03/04/2022,00:38:28,0.000,0.0,0.0,0.0
03/04/2022,00:39:28,0.000,0.0,0.0,0.0
03/04/2022,00:40:28,0.000,0.0,0.0,0.0
03/04/2022,00:41:28,0.000,0.0,0.0,0.0
03/04/2022,00:42:28,0.000,0.0,0.0,0.0
03/04/2022,00:43:36,0.000,0.0,0.0,0.0
03/04/2022,00:45:28,0.000,0.0,0.0,0.0
03/04/2022,00:46:28,0.001,0.0,0.0,0.0
03/04/2022,00:47:29,0.000,0.0,0.0,0.0
03/04/2022,00:48:28,-0.001,0.0,0.0,0.0
03/04/2022,00:49:28,0.000,0.0,0.0,0.0
03/04/2022,00:50:28,0.000,0.0,0.0,0.0
03/04/2022,00:51:28,0.000,0.0,0.0,0.0
03/04/2022,00:52:28,0.000,0.0,0.0,0.0
03/04/2022,00:53:36,0.000,0.0,0.0,0.0
03/04/2022,00:54:36,0.000,0.0,0.0,0.0
03/04/2022,00:55:28,0.000,0.0,0.0,0.0
03/04/2022,00:56:29,-0.000,0.0,0.0,0.0
03/04/2022,00:57:28,0.000,0.0,0.0,0.0
03/04/2022,00:58:28,0.000,0.0,0.0,0.0
03/04/2022,00:59:28,0.001,0.0,0.0,0.0
03/04/2022,01:00:28,-0.000,0.0,0.0,0.0
03/04/2022,01:01:37,0.000,0.0,0.0,0.0
03/04/2022,01:03:29,0.000,0.0,0.0,0.0
03/04/2022,01:04:28,-0.001,0.0,0.0,0.0
03/04/2022,01:05:28,0.001,0.0,0.0,0.0
03/04/2022,01:06:28,-0.001,0.0,0.0,0.0
03/04/2022,01:07:28,-0.001,0.0,0.0,0.0
03/04/2022,01:08:29,0.000,0.0,0.0,0.0
03/04/2022,01:09:28,-0.001,0.0,0.0,0.0
03/04/2022,01:10:28,0.000,0.0,0.0,0.0
03/04/2022,01:11:28,0.000,0.0,0.0,0.0
03/04/2022,01:12:29,-0.000,0.0,0.0,0.0
03/04/2022,01:13:28,-0.001,0.0,0.0,0.0
03/04/2022,01:14:28,0.000,0.0,0.0,0.0
03/04/2022,01:15:28,0.000,0.0,0.0,0.0
03/04/2022,01:16:28,0.000,0.0,0.0,0.0
03/04/2022,01:17:28,-0.001,0.0,0.0,0.0
03/04/2022,01:18:29,-0.000,0.0,0.0,0.0
03/04/2022,01:19:37,0.000,0.0,0.0,0.0
03/04/2022,01:21:29,0.000,0.0,0.0,0.0
03/04/2022,01:22:28,0.001,0.0,0.0,0.0
03/04/2022,01:23:28,0.000,0.0,0.0,0.0
03/04/2022,01:24:29,0.001,0.0,0.0,0.0
03/04/2022,01:25:28,0.001,0.0,0.0,0.0
03/04/2022,01:26:28,0.000,0.0,0.0,0.0
03/04/2022,01:27:28,0.000,0.0,0.0,0.0
03/04/2022,01:28:30,-0.001,0.0,0.0,0.0
03/04/2022,01:29:37,0.001,0.0,0.0,0.0
03/04/2022,01:30:28,0.001,0.0,0.0,0.0
03/04/2022,01:31:28,0.001,0.0,0.0,0.0
03/04/2022,01:32:28,0.000,0.0,0.0,0.0
03/04/2022,01:33:28,0.000,0.0,0.0,0.0
03/04/2022,01:34:29,0.000,0.0,0.0,0.0
03/04/2022,01:35:28,0.001,0.0,0.0,0.0
03/04/2022,01:36:28,0.000,0.0,0.0,0.0
03/04/2022,01:37:28,0.000,0.0,0.0,0.0
03/04/2022,01:38:28,0.001,0.0,0.0,0.0
03/04/2022,01:39:28,0.001,0.0,0.0,0.0
03/04/2022,01:40:45,0.001,0.0,0.0,0.0
03/04/2022,01:42:29,0.000,0.0,0.0,0.0
03/04/2022,01:43:28,0.000,0.0,0.0,0.0
03/04/2022,01:44:28,0.000,0.0,0.0,0.0
03/04/2022,01:45:29,0.000,0.0,0.0,0.0
03/04/2022,01:46:28,-0.000,0.0,0.0,0.0
03/04/2022,01:47:37,0.000,0.0,0.0,0.0
03/04/2022,01:49:29,0.000,0.0,0.0,0.0
03/04/2022,01:50:27,0.001,0.0,0.0,0.0
03/04/2022,01:51:28,0.000,0.0,0.0,0.0
03/04/2022,01:52:28,-0.000,0.0,0.0,0.0
03/04/2022,01:53:28,-0.000,0.0,0.0,0.0
03/04/2022,01:54:28,0.000,0.0,0.0,0.0
03/04/2022,01:55:29,0.000,0.0,0.0,0.0
03/04/2022,01:56:28,0.002,0.0,0.0,0.0
03/04/2022,01:57:28,0.000,0.0,0.0,0.0
03/04/2022,01:58:28,0.000,0.0,0.0,0.0
03/04/2022,01:59:29,0.000,0.0,0.0,0.0
03/04/2022,02:00:28,0.001,0.0,0.0,0.0
03/04/2022,02:01:29,0.000,0.0,0.0,0.0
03/04/2022,02:02:36,0.001,0.0,0.0,0.0
03/04/2022,02:03:28,0.000,0.0,0.0,0.0
03/04/2022,02:04:29,0.000,0.0,0.0,0.0
03/04/2022,02:05:28,0.000,0.0,0.0,0.0
03/04/2022,02:06:28,0.000,0.0,0.0,0.0
03/04/2022,02:07:28,-0.000,0.0,0.0,0.0
03/04/2022,02:08:28,-0.000,0.0,0.0,0.0
03/04/2022,02:09:29,0.001,0.0,0.0,0.0
03/04/2022,02:10:28,0.001,0.0,0.0,0.0
03/04/2022,02:11:29,0.000,0.0,0.0,0.0
03/04/2022,02:12:36,0.000,0.0,0.0,0.0
03/04/2022,02:13:36,0.000,0.0,0.0,0.0
03/04/2022,02:14:28,0.000,0.0,0.0,0.0
03/04/2022,02:15:28,0.000,0.0,0.0,0.0
03/04/2022,02:16:28,0.001,0.0,0.0,0.0
03/04/2022,02:17:29,0.000,0.0,0.0,0.0
03/04/2022,02:18:28,0.001,0.0,0.0,0.0
03/04/2022,02:19:28,0.000,0.0,0.0,0.0
03/04/2022,02:20:28,0.000,0.0,0.0,0.0
03/04/2022,02:21:28,0.000,0.0,0.0,0.0
03/04/2022,02:22:29,0.000,0.0,0.0,0.0
03/04/2022,02:23:37,0.000,0.0,0.0,0.0
03/04/2022,02:24:28,0.000,0.0,0.0,0.0
03/04/2022,02:25:28,0.001,0.0,0.0,0.0
03/04/2022,02:26:28,0.000,0.0,0.0,0.0
03/04/2022,02:27:28,0.000,0.0,0.0,0.0
03/04/2022,02:28:28,0.000,0.0,0.0,0.0
03/04/2022,02:29:28,0.000,0.0,0.0,0.0
03/04/2022,02:30:28,0.001,0.0,0.0,0.0
03/04/2022,02:31:36,0.001,0.0,0.0,0.0
03/04/2022,02:32:28,0.001,0.0,0.0,0.0
03/04/2022,02:33:28,0.000,0.0,0.0,0.0
03/04/2022,02:34:28,0.000,0.0,0.0,0.0
03/04/2022,02:35:29,0.000,0.0,0.0,0.0
03/04/2022,02:36:29,-0.000,0.0,0.0,0.0
03/04/2022,02:37:29,0.000,0.0,0.0,0.0
03/04/2022,02:38:36,0.000,0.0,0.0,0.0
03/04/2022,02:40:29,0.000,0.0,0.0,0.0
03/04/2022,02:41:28,0.000,0.0,0.0,0.0
03/04/2022,02:42:30,0.002,0.0,0.0,0.0
03/04/2022,02:43:28,0.000,0.0,0.0,0.0
03/04/2022,02:44:28,0.000,0.0,0.0,0.0
03/04/2022,02:45:28,0.000,0.0,0.0,0.0
03/04/2022,02:46:28,0.000,0.0,0.0,0.0
03/04/2022,02:47:29,0.000,0.0,0.0,0.0
03/04/2022,02:48:36,-0.000,0.0,0.0,0.0
03/04/2022,02:49:35,0.000,0.0,0.0,0.0
03/04/2022,02:50:28,0.000,0.0,0.0,0.0
03/04/2022,02:51:28,-0.000,0.0,0.0,0.0
03/04/2022,02:52:29,0.000,0.0,0.0,0.0
03/04/2022,02:53:29,0.001,0.0,0.0,0.0
03/04/2022,02:54:28,-0.000,0.0,0.0,0.0
03/04/2022,02:55:29,-0.000,0.0,0.0,0.0
03/04/2022,02:56:28,0.001,0.0,0.0,0.0
03/04/2022,02:57:28,0.000,0.0,0.0,0.0
03/04/2022,02:58:28,0.000,0.0,0.0,0.0
03/04/2022,02:59:45,0.000,0.0,0.0,0.0
03/04/2022,03:01:38,0.002,0.0,0.0,0.0
03/04/2022,03:02:28,0.000,0.0,0.0,0.0
03/04/2022,03:03:29,0.000,0.0,0.0,0.0
03/04/2022,03:04:29,0.001,0.0,0.0,0.0
03/04/2022,03:05:29,0.000,0.0,0.0,0.0
03/04/2022,03:06:28,-0.001,0.0,0.0,0.0
03/04/2022,03:07:37,0.001,0.0,0.0,0.0
03/04/2022,03:09:29,0.001,0.0,0.0,0.0
03/04/2022,03:10:29,0.001,0.0,0.0,0.0
03/04/2022,03:11:29,0.000,0.0,0.0,0.0
03/04/2022,03:12:28,0.001,0.0,0.0,0.0
03/04/2022,03:13:28,0.001,0.0,0.0,0.0
03/04/2022,03:14:36,0.001,0.0,0.0,0.0
03/04/2022,03:15:28,0.000,0.0,0.0,0.0
03/04/2022,03:16:30,0.000,0.0,0.0,0.0
03/04/2022,03:17:28,0.001,0.0,0.0,0.0
03/04/2022,03:18:28,-0.000,0.0,0.0,0.0
03/04/2022,03:19:28,0.001,0.0,0.0,0.0
03/04/2022,03:20:28,0.002,0.0,0.0,0.0
03/04/2022,03:21:28,0.001,0.0,0.0,0.0
03/04/2022,03:22:28,0.000,0.0,0.0,0.0
03/04/2022,03:23:29,0.000,0.0,0.0,0.0
03/04/2022,03:24:28,0.000,0.0,0.0,0.0
03/04/2022,03:25:29,0.000,0.0,0.0,0.0
03/04/2022,03:26:29,0.000,0.0,0.0,0.0
03/04/2022,03:27:28,0.001,0.0,0.0,0.0
03/04/2022,03:28:29,0.000,0.0,0.0,0.0
03/04/2022,03:29:36,-0.001,0.0,0.0,0.0
03/04/2022,03:30:15,0.001,0.0,0.0,0.0
03/04/2022,03:31:29,0.001,0.0,0.0,0.0
03/04/2022,03:32:37,0.001,0.0,0.0,0.0
03/04/2022,03:33:28,0.000,0.0,0.0,0.0
03/04/2022,03:34:28,0.002,0.0,0.0,0.0
03/04/2022,03:35:28,-0.001,0.0,0.0,0.0
03/04/2022,03:36:28,0.000,0.0,0.0,0.0
03/04/2022,03:37:29,0.000,0.0,0.0,0.0
03/04/2022,03:38:28,0.000,0.0,0.0,0.0
03/04/2022,03:39:28,0.001,0.0,0.0,0.0
03/04/2022,03:40:28,0.001,0.0,0.0,0.0
03/04/2022,03:41:29,0.001,0.0,0.0,0.0
03/04/2022,03:42:28,0.001,0.0,0.0,0.0
03/04/2022,03:43:36,0.001,0.0,0.0,0.0
03/04/2022,03:45:29,0.000,0.0,0.0,0.0
03/04/2022,03:46:28,0.000,0.0,0.0,0.0
03/04/2022,03:47:28,0.001,0.0,0.0,0.0
03/04/2022,03:48:28,0.001,0.0,0.0,0.0
03/04/2022,03:49:29,0.001,0.0,0.0,0.0
03/04/2022,03:50:29,0.000,0.0,0.0,0.0
03/04/2022,03:51:28,0.000,0.0,0.0,0.0
03/04/2022,03:52:28,0.001,0.0,0.0,0.0
03/04/2022,03:53:28,0.001,0.0,0.0,0.0
03/04/2022,03:54:29,0.000,0.0,0.0,0.0
03/04/2022,03:55:28,0.001,0.0,0.0,0.0
03/04/2022,03:56:28,0.002,0.0,0.0,0.0
03/04/2022,03:57:29,0.001,0.0,0.0,0.0
03/04/2022,03:58:37,0.000,0.0,0.0,0.0
03/04/2022,03:59:28,-0.000,0.0,0.0,0.0
03/04/2022,04:00:29,0.001,0.0,0.0,0.0
03/04/2022,04:01:28,0.000,0.0,0.0,0.0
03/04/2022,04:02:28,0.002,0.0,0.0,0.0
03/04/2022,04:03:29,0.001,0.0,0.0,0.0
03/04/2022,04:04:28,0.000,0.0,0.0,0.0
03/04/2022,04:05:28,-0.000,0.0,0.0,0.0
03/04/2022,04:06:28,0.000,0.0,0.0,0.0
03/04/2022,04:07:29,0.001,0.0,0.0,0.0
03/04/2022,04:08:28,-0.000,0.0,0.0,0.0
03/04/2022,04:09:29,0.000,0.0,0.0,0.0
03/04/2022,04:10:29,0.001,0.0,0.0,0.0
03/04/2022,04:11:27,0.001,0.0,0.0,0.0
03/04/2022,04:12:28,0.001,0.0,0.0,0.0
03/04/2022,04:13:29,0.001,0.0,0.0,0.0
03/04/2022,04:14:28,0.002,0.0,0.0,0.0
03/04/2022,04:15:28,0.001,0.0,0.0,0.0
03/04/2022,04:16:37,0.001,0.0,0.0,0.0
03/04/2022,04:18:29,0.001,0.0,0.0,0.0
03/04/2022,04:19:28,-0.001,0.0,0.0,0.0
03/04/2022,04:20:29,0.000,0.0,0.0,0.0
03/04/2022,04:21:28,0.001,0.0,0.0,0.0
03/04/2022,04:22:28,0.001,0.0,0.0,0.0
03/04/2022,04:23:28,0.002,0.0,0.0,0.0
03/04/2022,04:24:28,0.001,0.0,0.0,0.0
03/04/2022,04:25:29,0.002,0.0,0.0,0.0
03/04/2022,04:26:36,0.001,0.0,0.0,0.0
03/04/2022,04:28:37,0.002,0.0,0.0,0.0
03/04/2022,04:30:29,0.001,0.0,0.0,0.0
03/04/2022,04:31:29,0.000,0.0,0.0,0.0
03/04/2022,04:32:29,-0.000,0.0,0.0,0.0
03/04/2022,04:33:28,0.000,0.0,0.0,0.0
03/04/2022,04:34:28,0.000,0.0,0.0,0.0
03/04/2022,04:35:29,0.001,0.0,0.0,0.0
03/04/2022,04:36:29,0.000,0.0,0.0,0.0
03/04/2022,04:37:29,-0.001,0.0,0.0,0.0
03/04/2022,04:38:28,0.001,0.0,0.0,0.0
03/04/2022,04:39:29,0.001,0.0,0.0,0.0
03/04/2022,04:40:29,0.001,0.0,0.0,0.0
03/04/2022,04:41:36,0.001,0.0,0.0,0.0
03/04/2022,04:42:35,0.001,0.0,0.0,0.0
03/04/2022,04:44:30,0.002,0.0,0.0,0.0
03/04/2022,04:45:29,0.001,0.0,0.0,0.0
03/04/2022,04:46:28,0.001,0.0,0.0,0.0
03/04/2022,04:47:28,0.001,0.0,0.0,0.0
03/04/2022,04:48:29,0.001,0.0,0.0,0.0
03/04/2022,04:49:37,0.001,0.0,0.0,0.0
03/04/2022,04:50:28,0.002,0.0,0.0,0.0
03/04/2022,04:51:29,0.001,0.0,0.0,0.0
03/04/2022,04:52:37,0.001,0.0,0.0,0.0
03/04/2022,04:53:28,0.001,0.0,0.0,0.0
03/04/2022,04:54:29,0.001,0.0,0.0,0.0
03/04/2022,04:55:28,0.001,0.0,0.0,0.0
03/04/2022,04:56:28,0.001,0.0,0.0,0.0
03/04/2022,04:57:29,0.001,0.0,0.0,0.0
03/04/2022,04:58:29,0.001,0.0,0.0,0.0
03/04/2022,04:59:28,0.002,0.0,0.0,0.0
03/04/2022,05:00:28,0.000,0.0,0.0,0.0
03/04/2022,05:01:29,0.001,0.0,0.0,0.0
03/04/2022,05:02:28,0.002,0.0,0.0,0.0
03/04/2022,05:03:29,0.001,0.0,0.0,0.0
03/04/2022,05:04:28,0.001,0.0,0.0,0.0
03/04/2022,05:05:29,-0.000,0.0,0.0,0.0
03/04/2022,05:06:28,0.000,0.0,0.0,0.0
03/04/2022,05:07:37,0.001,0.0,0.0,0.0
03/04/2022,05:08:29,0.001,0.0,0.0,0.0
03/04/2022,05:09:29,0.001,0.0,0.0,0.0
03/04/2022,05:10:29,0.001,0.0,0.0,0.0
03/04/2022,05:11:29,0.000,0.0,0.0,0.0
03/04/2022,05:12:29,0.001,0.0,0.0,0.0
03/04/2022,05:13:28,0.001,0.0,0.0,0.0
03/04/2022,05:14:28,0.000,0.0,0.0,0.0
03/04/2022,05:15:29,0.000,0.0,0.0,0.0
03/04/2022,05:16:28,0.001,0.0,0.0,0.0
03/04/2022,05:17:28,0.001,0.0,0.0,0.0
03/04/2022,05:18:28,0.001,0.0,0.0,0.0
03/04/2022,05:19:28,0.002,0.0,0.0,0.0
03/04/2022,05:20:29,0.002,0.0,0.0,0.0
03/04/2022,05:21:29,0.001,0.0,0.0,0.0
03/04/2022,05:22:28,0.001,0.0,0.0,0.0
03/04/2022,05:23:28,0.001,0.0,0.0,0.0
03/04/2022,05:24:29,0.001,0.0,0.0,0.0
03/04/2022,05:25:37,0.001,0.0,0.0,0.0
03/04/2022,05:26:28,0.002,0.0,0.0,0.0
03/04/2022,05:27:29,0.001,0.0,0.0,0.0
03/04/2022,05:28:28,0.001,0.0,0.0,0.0
03/04/2022,05:29:28,0.001,0.0,0.0,0.0
03/04/2022,05:30:28,0.002,0.0,0.0,0.0
03/04/2022,05:31:28,0.002,0.0,0.0,0.0
03/04/2022,05:34:38,0.002,0.0,0.0,0.0
03/04/2022,05:35:28,0.002,0.0,0.0,0.0
03/04/2022,05:36:28,0.002,0.0,0.0,0.0
03/04/2022,05:37:29,0.002,0.0,0.0,0.0
03/04/2022,05:38:28,0.002,0.0,0.0,0.0
03/04/2022,05:39:28,0.002,0.0,0.0,0.0
03/04/2022,05:40:37,0.003,0.0,0.0,0.0
03/04/2022,05:41:29,0.003,0.0,0.0,0.0
03/04/2022,05:42:29,0.003,0.0,0.0,0.0
03/04/2022,05:43:29,0.002,0.0,0.0,0.0
03/04/2022,05:44:29,0.003,0.0,0.0,0.0
03/04/2022,05:45:29,0.003,0.0,0.0,0.0
03/04/2022,05:46:29,0.003,0.0,0.0,0.0
03/04/2022,05:47:29,0.004,0.0,0.0,0.0
03/04/2022,05:48:28,0.004,0.0,0.0,0.0
03/04/2022,05:49:29,0.005,0.0,0.0,0.0
03/04/2022,05:50:28,0.004,0.0,0.0,0.0
03/04/2022,05:51:28,0.006,0.0,0.0,0.0
03/04/2022,05:52:29,0.005,0.0,0.0,0.0
03/04/2022,05:53:30,0.006,0.0,0.0,0.0
03/04/2022,05:54:28,0.006,0.0,0.0,0.0
03/04/2022,05:55:37,0.006,0.0,0.0,0.0
03/04/2022,05:56:29,0.006,0.0,0.0,0.0
03/04/2022,05:57:29,0.006,0.0,0.0,0.0
03/04/2022,05:58:37,0.007,0.0,0.0,0.0
03/04/2022,05:59:29,0.007,0.0,0.0,0.0
03/04/2022,06:00:28,0.007,0.0,0.0,0.0
03/04/2022,06:01:29,0.008,0.0,0.001,0.001
03/04/2022,06:02:36,0.008,0.0,0.001,0.0
03/04/2022,06:03:28,0.008,0.0,0.001,0.0
03/04/2022,06:04:29,0.009,0.0,0.001,0.0
03/04/2022,06:05:28,0.009,0.0,0.001,0.0
03/04/2022,06:06:29,0.010,0.0,0.001,0.0
03/04/2022,06:07:29,0.010,0.0,0.001,0.0
03/04/2022,06:08:28,0.011,0.0,0.002,0.001
03/04/2022,06:09:37,0.010,0.0,0.002,0.0
03/04/2022,06:10:28,0.011,0.0,0.002,0.0
03/04/2022,06:11:29,0.013,0.0,0.002,0.0
03/04/2022,06:12:29,0.014,0.0,0.002,0.0
03/04/2022,06:13:29,0.013,0.0,0.003,0.001
03/04/2022,06:14:28,0.013,0.0,0.003,0.0
03/04/2022,06:15:29,0.014,0.0,0.003,0.0
03/04/2022,06:16:28,0.014,0.0,0.003,0.0
03/04/2022,06:17:29,0.016,0.0,0.004,0.001
03/04/2022,06:19:30,0.017,0.0,0.004,0.0
03/04/2022,06:20:28,0.016,0.0,0.004,0.0
03/04/2022,06:21:29,0.017,0.0,0.005,0.001
03/04/2022,06:22:29,0.018,0.0,0.005,0.0
03/04/2022,06:23:29,0.018,0.0,0.005,0.0
03/04/2022,06:24:28,0.019,0.0,0.006,0.001
03/04/2022,06:25:37,0.020,0.0,0.006,0.0
03/04/2022,06:26:28,0.021,0.0,0.006,0.0
03/04/2022,06:27:29,0.021,0.0,0.007,0.001
03/04/2022,06:28:29,0.022,0.0,0.007,0.0
03/04/2022,06:29:28,0.023,0.0,0.007,0.0
03/04/2022,06:30:29,0.024,0.0,0.008,0.001
03/04/2022,06:31:28,0.024,0.0,0.008,0.0
03/04/2022,06:32:29,0.025,0.0,0.009,0.001
03/04/2022,06:33:29,0.026,0.0,0.009,0.0
03/04/2022,06:34:29,0.027,0.0,0.009,0.0
03/04/2022,06:35:29,0.028,0.0,0.01,0.001
03/04/2022,06:36:37,0.029,0.0,0.01,0.0
03/04/2022,06:37:28,0.030,0.0,0.011,0.001
03/04/2022,06:38:28,0.030,0.0,0.011,0.0
03/04/2022,06:39:28,0.031,0.0,0.012,0.001
03/04/2022,06:40:29,0.032,0.0,0.012,0.0
03/04/2022,06:41:29,0.033,0.0,0.013,0.001
03/04/2022,06:42:29,0.035,0.0,0.013,0.0
03/04/2022,06:43:28,0.035,0.0,0.014,0.001
03/04/2022,06:44:29,0.036,0.0,0.015,0.001
03/04/2022,06:45:29,0.037,0.0,0.015,0.0
03/04/2022,06:46:37,0.039,0.0,0.016,0.001
03/04/2022,06:47:37,0.040,0.0,0.017,0.001
03/04/2022,06:48:29,0.041,0.0,0.017,0.0
03/04/2022,06:49:28,0.042,0.0,0.018,0.001
03/04/2022,06:50:29,0.043,0.0,0.019,0.001
03/04/2022,06:51:28,0.044,0.0,0.019,0.0
03/04/2022,06:52:29,0.045,0.0,0.02,0.001
03/04/2022,06:53:28,0.047,0.0,0.021,0.001
03/04/2022,06:54:29,0.048,0.0,0.022,0.001
03/04/2022,06:55:29,0.049,0.0,0.022,0.0
03/04/2022,06:56:28,0.051,0.0,0.023,0.001
03/04/2022,06:57:28,0.052,0.0,0.024,0.001
03/04/2022,06:58:29,0.052,0.0,0.025,0.001
03/04/2022,06:59:28,0.054,0.0,0.026,0.001
03/04/2022,07:00:29,0.056,0.0,0.027,0.001
03/04/2022,07:01:37,0.057,0.0,0.028,0.001
03/04/2022,07:02:28,0.059,0.0,0.029,0.001
03/04/2022,07:03:29,0.061,0.0,0.03,0.001
03/04/2022,07:04:29,0.062,0.0,0.031,0.001
03/04/2022,07:05:29,0.063,0.0,0.032,0.001
03/04/2022,07:06:29,0.065,0.0,0.033,0.001
03/04/2022,07:07:29,0.066,0.0,0.034,0.001
03/04/2022,07:08:29,0.068,0.0,0.035,0.001
03/04/2022,07:09:29,0.070,0.0,0.036,0.001
03/04/2022,07:10:29,0.071,0.0,0.037,0.001
03/04/2022,07:11:29,0.073,0.0,0.039,0.002
03/04/2022,07:12:37,0.075,0.0,0.04,0.001
03/04/2022,07:13:29,0.077,0.0,0.041,0.001
03/04/2022,07:14:29,0.079,0.0,0.042,0.001
03/04/2022,07:15:29,0.080,0.0,0.044,0.002
03/04/2022,07:16:30,0.082,0.0,0.045,0.001
03/04/2022,07:17:45,0.085,0.0,0.047,0.002
03/04/2022,07:19:30,0.088,0.0,0.049,0.002
03/04/2022,07:20:29,0.090,0.0,0.051,0.002
03/04/2022,07:21:28,0.093,0.0,0.052,0.001
03/04/2022,07:22:37,0.094,0.0,0.054,0.002
03/04/2022,07:24:38,0.098,0.0,0.057,0.003
03/04/2022,07:26:29,0.102,0.0,0.06,0.003
03/04/2022,07:27:37,0.105,0.0,0.062,0.002
03/04/2022,07:28:28,0.107,0.0,0.064,0.002
03/04/2022,07:29:29,0.110,0.0,0.066,0.002
03/04/2022,07:30:29,0.112,0.0,0.068,0.002
03/04/2022,07:31:29,0.113,0.0,0.069,0.001
03/04/2022,07:32:29,0.116,0.0,0.071,0.002
03/04/2022,07:33:28,0.118,0.0,0.073,0.002
03/04/2022,07:34:37,0.121,0.0,0.076,0.003
03/04/2022,07:35:28,0.123,0.0,0.077,0.001
03/04/2022,07:36:29,0.125,0.0,0.079,0.002
03/04/2022,07:37:29,0.129,0.0,0.081,0.002
03/04/2022,07:38:29,0.132,0.0,0.084,0.003
03/04/2022,07:39:28,0.134,0.0,0.086,0.002
03/04/2022,07:40:29,0.136,0.0,0.088,0.002
03/04/2022,07:41:29,0.138,0.0,0.09,0.002
03/04/2022,07:42:29,0.142,0.0,0.093,0.003
03/04/2022,07:43:29,0.143,0.0,0.095,0.002
03/04/2022,07:44:28,0.145,0.0,0.097,0.002
03/04/2022,07:45:29,0.149,0.0,0.1,0.003
03/04/2022,07:46:29,0.153,0.0,0.102,0.002
03/04/2022,07:47:28,0.156,0.0,0.105,0.003
03/04/2022,07:48:29,0.159,0.0,0.108,0.003
03/04/2022,07:49:29,0.162,0.0,0.11,0.002
03/04/2022,07:50:28,0.165,0.0,0.113,0.003
03/04/2022,07:51:31,0.167,0.0,0.116,0.003
03/04/2022,07:52:36,0.170,0.0,0.119,0.003
03/04/2022,07:53:29,0.174,0.0,0.121,0.002
03/04/2022,07:54:29,0.176,0.0,0.124,0.003
03/04/2022,07:55:29,0.178,0.0,0.127,0.003
03/04/2022,07:56:29,0.181,0.0,0.13,0.003
03/04/2022,07:57:29,0.185,0.0,0.133,0.003
03/04/2022,07:58:28,0.188,0.0,0.136,0.003
03/04/2022,07:59:29,0.192,0.0,0.14,0.004
03/04/2022,08:00:29,0.194,0.0,0.143,0.003
03/04/2022,08:01:29,0.198,0.0,0.146,0.003
03/04/2022,08:02:29,0.201,0.0,0.149,0.003
03/04/2022,08:03:29,0.205,0.0,0.153,0.004
03/04/2022,08:04:29,0.208,0.0,0.156,0.003
03/04/2022,08:05:29,0.211,0.0,0.16,0.004
03/04/2022,08:06:29,0.214,0.0,0.163,0.003
03/04/2022,08:07:37,0.218,1.0,0.167,0.004
03/04/2022,08:09:30,0.224,1.0,0.174,0.007
03/04/2022,08:10:29,0.228,1.0,0.178,0.004
03/04/2022,08:11:29,0.232,1.0,0.182,0.004
03/04/2022,08:12:28,0.234,1.0,0.186,0.004
03/04/2022,08:13:28,0.239,1.0,0.19,0.004
03/04/2022,08:14:37,0.244,1.0,0.194,0.004
03/04/2022,08:15:29,0.246,1.0,0.198,0.004
03/04/2022,08:16:29,0.251,1.0,0.202,0.004
03/04/2022,08:17:29,0.255,1.0,0.206,0.004
03/04/2022,08:18:28,0.258,1.0,0.21,0.004
03/04/2022,08:19:28,0.262,1.0,0.215,0.005
03/04/2022,08:20:29,0.259,1.0,0.219,0.004
03/04/2022,08:21:29,0.262,1.0,0.224,0.005
03/04/2022,08:22:29,0.264,1.0,0.228,0.004
03/04/2022,08:23:29,0.265,1.0,0.233,0.005
03/04/2022,08:24:29,0.282,1.0,0.237,0.004
03/04/2022,08:25:37,0.286,1.0,0.242,0.005
03/04/2022,08:26:29,0.291,1.0,0.246,0.004
03/04/2022,08:27:29,0.297,1.0,0.251,0.005
03/04/2022,08:28:29,0.300,1.0,0.257,0.006
03/04/2022,08:29:29,0.305,1.0,0.262,0.005
03/04/2022,08:30:29,0.309,1.0,0.267,0.005
03/04/2022,08:31:29,0.312,1.0,0.272,0.005
03/04/2022,08:32:29,0.311,1.0,0.277,0.005
03/04/2022,08:33:28,0.319,1.0,0.282,0.005
03/04/2022,08:34:29,0.324,1.0,0.287,0.005
03/04/2022,08:35:28,0.329,1.0,0.293,0.006
03/04/2022,08:36:38,0.334,1.0,0.299,0.006
03/04/2022,08:37:29,0.338,1.0,0.304,0.005
03/04/2022,08:38:29,0.345,1.0,0.31,0.006
03/04/2022,08:39:29,0.348,1.0,0.315,0.005
03/04/2022,08:40:29,0.352,1.0,0.321,0.006
03/04/2022,08:41:29,0.357,1.0,0.327,0.006
03/04/2022,08:42:29,0.362,1.0,0.333,0.006
03/04/2022,08:43:29,0.367,1.0,0.339,0.006
03/04/2022,08:44:29,0.372,1.0,0.345,0.006
03/04/2022,08:45:29,0.376,1.0,0.352,0.007
03/04/2022,08:46:37,0.381,1.0,0.359,0.007
03/04/2022,08:47:28,0.386,1.0,0.364,0.005
03/04/2022,08:48:28,0.390,1.0,0.371,0.007
03/04/2022,08:49:29,0.393,1.0,0.377,0.006
03/04/2022,08:50:29,0.399,1.0,0.384,0.007
03/04/2022,08:51:29,0.403,1.0,0.39,0.006
03/04/2022,08:52:28,0.407,1.0,0.397,0.007
03/04/2022,08:53:28,0.412,1.0,0.404,0.007
03/04/2022,08:54:38,0.417,1.0,0.412,0.008
03/04/2022,08:56:29,0.426,1.0,0.425,0.013
03/04/2022,08:57:29,0.430,1.0,0.432,0.007
03/04/2022,08:58:29,0.431,1.0,0.44,0.008
03/04/2022,08:59:29,0.436,1.0,0.446,0.006
03/04/2022,09:00:28,0.442,1.0,0.454,0.008
03/04/2022,09:01:29,0.446,1.0,0.461,0.007
03/04/2022,09:02:29,0.450,1.0,0.469,0.008
03/04/2022,09:03:29,0.453,1.0,0.476,0.007
03/04/2022,09:04:29,0.460,1.0,0.484,0.008
03/04/2022,09:05:29,0.465,1.0,0.492,0.008
03/04/2022,09:06:29,0.473,1.0,0.499,0.007
03/04/2022,09:07:37,0.480,1.0,0.509,0.01
03/04/2022,09:08:29,0.486,1.0,0.515,0.006
03/04/2022,09:09:29,0.491,1.0,0.523,0.008
03/04/2022,09:10:29,0.497,1.0,0.532,0.009
03/04/2022,09:11:29,0.500,1.0,0.54,0.008
03/04/2022,09:12:28,0.504,1.0,0.548,0.008
03/04/2022,09:13:29,0.503,1.0,0.557,0.009
03/04/2022,09:14:29,0.505,1.0,0.566,0.009
03/04/2022,09:15:29,0.511,1.0,0.574,0.008
03/04/2022,09:16:29,0.522,1.0,0.582,0.008
03/04/2022,09:17:29,0.526,1.0,0.591,0.009
03/04/2022,09:18:29,0.533,1.0,0.6,0.009
03/04/2022,09:19:29,0.538,1.0,0.609,0.009
03/04/2022,09:20:29,0.544,1.0,0.618,0.009
03/04/2022,09:21:29,0.546,1.0,0.627,0.009
03/04/2022,09:22:37,0.551,1.0,0.637,0.01
03/04/2022,09:23:28,0.556,1.0,0.645,0.008
03/04/2022,09:24:29,0.561,1.0,0.655,0.01
03/04/2022,09:25:29,0.569,1.0,0.664,0.009
03/04/2022,09:26:29,0.574,1.0,0.674,0.01
03/04/2022,09:27:29,0.568,1.0,0.683,0.009
03/04/2022,09:28:29,0.583,1.0,0.693,0.01
03/04/2022,09:29:29,0.590,1.0,0.703,0.01
03/04/2022,09:30:29,0.597,1.0,0.712,0.009
03/04/2022,09:31:29,0.604,1.0,0.722,0.01
03/04/2022,09:32:37,0.606,1.0,0.734,0.012
03/04/2022,09:33:29,0.610,1.0,0.742,0.008
03/04/2022,09:34:29,0.615,1.0,0.753,0.011
03/04/2022,09:35:37,0.624,1.0,0.764,0.011
03/04/2022,09:36:29,0.630,1.0,0.773,0.009
03/04/2022,09:37:29,0.633,1.0,0.784,0.011
03/04/2022,09:38:29,0.637,1.0,0.794,0.01
03/04/2022,09:39:29,0.638,1.0,0.805,0.011
03/04/2022,09:40:29,0.646,1.0,0.816,0.011
03/04/2022,09:41:29,0.654,2.0,0.827,0.011
03/04/2022,09:42:29,0.659,2.0,0.838,0.011
03/04/2022,09:43:37,0.666,2.0,0.85,0.012
03/04/2022,09:44:29,0.670,2.0,0.86,0.01
03/04/2022,09:45:29,0.670,2.0,0.871,0.011
03/04/2022,09:46:29,0.673,2.0,0.882,0.011
03/04/2022,09:47:29,0.678,2.0,0.894,0.012
03/04/2022,09:48:29,0.682,2.0,0.905,0.011
03/04/2022,09:49:29,0.689,2.0,0.916,0.011
03/04/2022,09:50:29,0.697,2.0,0.928,0.012
03/04/2022,09:51:29,0.698,2.0,0.94,0.012
03/04/2022,09:52:29,0.702,2.0,0.951,0.011
03/04/2022,09:53:37,0.721,2.0,0.964,0.013
03/04/2022,09:54:28,0.726,2.0,0.975,0.011
03/04/2022,09:55:29,0.731,2.0,0.987,0.012
03/04/2022,09:56:29,0.735,2.0,1.0,0.013
03/04/2022,09:57:29,0.743,2.0,1.012,0.012
03/04/2022,09:58:29,0.753,2.0,1.024,0.012
03/04/2022,09:59:30,0.759,2.0,1.037,0.013
03/04/2022,10:00:38,0.768,2.0,1.051,0.014
03/04/2022,10:01:28,0.773,2.0,1.062,0.011
03/04/2022,10:02:29,0.776,2.0,1.075,0.013
03/04/2022,10:03:29,0.779,2.0,1.088,0.013
03/04/2022,10:04:29,0.780,2.0,1.101,0.013
03/04/2022,10:05:29,0.785,2.0,1.114,0.013
03/04/2022,10:06:29,0.740,2.0,1.127,0.013
03/04/2022,10:07:29,0.675,2.0,1.139,0.012
03/04/2022,10:08:29,0.796,2.0,1.151,0.012
03/04/2022,10:09:29,0.803,2.0,1.164,0.013
03/04/2022,10:10:29,0.781,2.0,1.177,0.013
03/04/2022,10:11:29,0.556,1.0,1.188,0.011
03/04/2022,10:12:29,0.557,1.0,1.197,0.009
03/04/2022,10:13:29,0.817,2.0,1.208,0.011
03/04/2022,10:14:29,0.822,2.0,1.222,0.014
03/04/2022,10:15:29,0.837,2.0,1.236,0.014
03/04/2022,10:16:29,0.834,2.0,1.25,0.014
03/04/2022,10:17:29,0.849,2.0,1.263,0.013
03/04/2022,10:18:16,0.847,2.0,1.275,0.012
03/04/2022,10:19:30,0.848,2.0,1.292,0.017
03/04/2022,10:20:29,0.861,2.0,1.306,0.014
03/04/2022,10:21:37,0.870,2.0,1.322,0.016
03/04/2022,10:23:29,0.884,2.0,1.35,0.028
03/04/2022,10:24:29,0.859,2.0,1.364,0.014
03/04/2022,10:25:29,0.803,2.0,1.377,0.013
03/04/2022,10:26:29,0.878,2.0,1.391,0.014
03/04/2022,10:27:30,0.908,2.0,1.406,0.015
03/04/2022,10:28:37,0.913,2.0,1.423,0.017
03/04/2022,10:29:28,0.920,2.0,1.436,0.013
03/04/2022,10:30:29,0.920,2.0,1.452,0.016
03/04/2022,10:31:38,0.934,2.0,1.47,0.018